AQUA

导读 | 豆包AI

AQUA(水)号卫星是美国NASA地球观测系统计划的第二颗核心卫星,原称EOS/PM-1,于2002年5月4日由德尔塔2号火箭发射,进入705千米高度的太阳同步轨道。该卫星主要任务是多学科观测地球水循环,研究大气、海洋、陆地水文过程及全球气候系统变化,星上配置CERES、MODIS等6台科学载荷,设计寿命6年,超期服役至今仍正常在轨运行。

基本信息
目录编号:
27424
目录名称:
AQUA
国际标识:
2002-022A
轨道中心:
EARTH
卫星名称:
AQUA
卫星全名:
--
卫星状态:
在轨 (已飞行8763 天)
发射日期:
2002-05-04 UTC
国别 :
美国 (US)
星等 :
--
轨道信息
数据来源 国际轨道数据
星历时间: 2026-04-30T23:36:50+0800
10小时前
查看轨道信息
半长轴: 7064.595km
偏心率: 0.000209
轨道倾角: 98.425°
近地点辐角 90.648°
升交点赤经 88.996°
平近点角 82.978°
近地点: 684.981km
远地点: 687.935km
周期: 98.490分钟
每日圈数: 14.620825
详细信息
使用方式:
暂无
2D轨道图
3D轨道图
轨道高度分析图
轨道倾角分析图
轨道综合分析图
查看轨道综合分析图